Tracking 29487 objects as of 11-Sep-2024
HD Live streaming from Space Station
objects crossing your sky now

DELTA 1 DEB

Track DELTA 1 DEB now!
10-day predictions


NORAD ID: 2700
Int'l Code: 1965-089C
Perigee: 1,070.5 km
Apogee: 2,225.9 km
Inclination: 59.6 °
Period: 119.1 minutes
Semi major axis: 8019 km
RCS: 0.0515 m2 (small)
Launch date: November 6, 1965
Source: United States (US)
Launch site: AIR FORCE EASTERN TEST RANGE (AFETR)

Note: This is SATELLITE DEBRIS
Your satellite tracking list
Your tracking list is empty




NASA's NSSDC Master Catalog

Two Line Element Set (TLE):
1 02700U 65089C   24254.74700325 -.00000043  00000-0  17429-3 0  9996
2 02700  59.5984 328.6248 0720411  31.0708  57.2263 12.08941570633530
Source of the keplerian elements: AFSPC